AO-07 1 07530U 74089B 22083.90924615 -.00000024 00000-0 13403-3 0 9995 2 07530 101.8974 63.5365 0012050 202.6607 212.2116 12.53653617167116 UO-11 1 14781U 84021B 22083.53762057 .00000595 00000-0 78455-4 0 9998 2 14781 97.6133 74.8742 0007063 234.9477 125.1076 14.83499935 27451 LO-19 1 20442U 90005G 22083.89688628 .00000089 00000-0 49124-4 0 9997 2 20442 98.7842 47.5125 0012741 59.8308 300.4136 14.33032251681055 HUBBLE 1 20580U 90037B 22083.53339881 .00001892 00000-0 10215-3 0 9991 2 20580 28.4712 11.3316 0002592 197.9531 324.4615 15.10161846553369 MET-2/21 1 22782U 93055A 22083.55507595 .00000042 00000-0 24284-4 0 9999 2 22782 82.5454 81.6185 0021350 223.4543 255.2138 13.83849087442269 AO-27 1 22825U 93061C 22083.51112954 .00000029 00000-0 29137-4 0 9998 2 22825 98.8974 112.7116 0007485 303.1532 56.8931 14.30151778486014 IO-26 1 22826U 93061D 22083.55476384 .00000040 00000-0 33313-4 0 9997 2 22826 98.8917 112.6413 0007922 287.9066 72.1251 14.30494685486279 FO-29 1 24278U 96046B 22083.54719615 -.00000036 00000-0 -31494-5 0 9998 2 24278 98.5276 118.8768 0350977 143.4671 219.0972 13.53111577264127 NOAA-15 1 25338U 98030A 22083.52604468 .00000075 00000-0 49882-4 0 9998 2 25338 98.6546 114.1328 0010488 179.0953 181.0248 14.26100027240919 GO-32 1 25397U 98043D 22083.46415468 .00000040 00000-0 37088-4 0 9997 2 25397 98.8085 33.7513 0001628 35.3020 324.8265 14.23738143231336 ISS 1 25544U 98067A 22083.92879405 .00006443 00000-0 12273-3 0 9994 2 25544 51.6447 33.8992 0003962 308.9018 166.9492 15.49532225332117 NO-44 1 26931U 01043C 22083.58476344 .00000048 00000-0 50133-4 0 9993 2 26931 67.0495 277.4521 0007621 275.3133 84.7099 14.30673032 69261 SO-50 1 27607U 02058C 22083.56391422 .00000430 00000-0 80272-4 0 9994 2 27607 64.5552 201.6410 0072799 311.3188 48.1663 14.75962427 35849 CO-55 1 27844U 03031E 22083.52359679 .00000176 00000-0 98666-4 0 9996 2 27844 98.6818 92.4838 0009644 355.1069 5.0013 14.22398899971790 CO-57 1 27848U 03031J 22083.46034492 .00000147 00000-0 86475-4 0 9999 2 27848 98.6865 92.9569 0009821 9.3570 350.7789 14.21963141971601 RS-22 1 27939U 03042A 22083.70108980 .00000618 00000-0 11851-3 0 9991 2 27939 98.1765 224.5170 0014221 114.4323 245.8371 14.67192224988617 NOAA-18 1 28654U 05018A 22083.85407202 .00000125 00000-0 91776-4 0 9994 2 28654 98.9565 154.3351 0013976 206.6543 153.3911 14.12702695868128 CO-58 1 28895U 05043F 22083.30510616 .00000667 00000-0 13558-3 0 9995 2 28895 98.0916 216.0751 0017563 52.6474 307.6326 14.64151414874950 Falconsat-3 1 30776U 07006E 22083.45256993 .00023899 00000-0 45711-3 0 9996 2 30776 35.4329 94.5418 0002972 261.7540 98.2853 15.47140048836384 CO-65 1 32785U 08021C 22083.37735357 .00001352 00000-0 14850-3 0 9993 2 32785 97.6489 56.9893 0013531 149.3939 210.8070 14.89187505753822 AAUSAT2 1 32788U 08021F 22083.48538900 .00003275 00000-0 29207-3 0 9991 2 32788 97.5291 71.8862 0012658 53.7128 306.5261 14.96587856755721 DO-64 1 32789U 08021G 22083.54554951 .00008482 00000-0 50428-3 0 9997 2 32789 97.3498 113.0138 0009241 252.9794 107.0424 15.11471530759098 CO-66 1 32791U 08021J 22083.42629716 .00002655 00000-0 26623-3 0 9995 2 32791 97.6049 62.6289 0014627 110.7869 249.4919 14.92078517754518 RS-30 1 32953U 08025A 22083.55003414 .00000021 00000-0 80971-4 0 9996 2 32953 82.5000 236.7122 0020152 86.8708 273.4674 12.43108023627786 PRISM 1 33493U 09002B 22083.52360432 .00003363 00000-0 28363-3 0 9993 2 33493 98.2256 65.3339 0015537 77.4194 282.8764 14.98820390716250 NOAA-19 1 33591U 09005A 22083.56249307 .00000080 00000-0 68515-4 0 9993 2 33591 99.1590 115.8744 0014762 68.5403 291.7341 14.12540257676201 SRMSAT 1 37841U 11058D 22083.23744892 .00000352 00000-0 48419-4 0 9992 2 37841 19.9730 50.0059 0012065 127.4742 262.9576 14.10732918539194 HRBE 1 37855U 11061F 22083.49077154 .00005474 00000-0 25511-3 0 9996 2 37855 101.7060 157.8909 0159512 316.4344 42.4362 15.10134674568408 RS-40 1 38735U 12041C 22083.47001670 .00000054 00000-0 31762-3 0 9995 2 38735 82.4790 318.5002 0016463 193.6038 166.4600 12.42585071437964 ZACUBE-1 1 39417U 13066B 22083.50677381 .00001620 00000-0 20525-3 0 9998 2 39417 97.6283 58.9031 0057246 324.5756 35.1661 14.81972875450545 Delfi-N3xt 1 39428U 13066N 22083.37808020 .00001276 00000-0 20555-3 0 9991 2 39428 97.8090 21.4600 0118031 189.1030 170.8037 14.68636227446049 GOMX-1 1 39430U 13066Q 22083.47590315 .00001039 00000-0 19501-3 0 9996 2 39430 97.8142 355.5214 0148982 313.2767 45.6076 14.59947420443899 LO-74 1 39440U 13066AA 22083.42596875 .00001593 00000-0 22320-3 0 9997 2 39440 97.7169 44.6243 0080553 48.0679 312.7361 14.76650705447738 AO-73 1 39444U 13066AE 22083.44821105 .00001914 00000-0 23573-3 0 9998 2 39444 97.6169 61.2441 0055918 313.3696 46.2867 14.82977207448928 SPROUT 1 39770U 14029E 22083.58510868 .00003778 00000-0 39997-3 0 9993 2 39770 97.9300 200.1274 0008598 13.3148 346.8266 14.89737103425023 DTUSAT-2 1 40030U 14033W 22083.27729770 .00001663 00000-0 18041-3 0 9997 2 40030 97.9329 15.7573 0011306 342.0540 18.0276 14.89510027420967 EO-80 1 40032U 14033Y 22083.38209514 .00001632 00000-0 17725-3 0 9994 2 40032 97.9335 15.8740 0011251 342.8432 17.2403 14.89476599420957 HODOYOSHI-1 1 40299U 14070B 22083.58274841 .00003424 00000-0 13581-3 0 9994 2 40299 97.2514 154.2320 0014239 80.0991 18.2012 15.25940846410112 FIREBIRD FU3 1 40377U 15003B 22083.50569676 .00011492 00000-0 37526-3 0 9992 2 40377 99.1127 289.6542 0106935 312.5791 46.6456 15.26552533395443 FIREBIRD FU4 1 40378U 15003C 22083.53616632 .00010811 00000-0 35244-3 0 9990 2 40378 99.1130 289.8834 0106922 312.1408 47.0777 15.26629541395457 GRIFEX 1 40379U 15003D 22083.51746874 .00006584 00000-0 24733-3 0 9994 2 40379 99.1196 276.6405 0120500 351.8654 8.0619 15.21058433394709 XW-2A 1 40903U 15049E 22083.91985045 .00013901 00000-0 25166-3 0 9998 2 40903 97.1944 142.4986 0012412 73.0698 44.6362 15.49679930366158 XW-2C 1 40906U 15049H 22083.60014981 .00003987 00000-0 19904-3 0 9995 2 40906 97.4946 87.7524 0012392 298.7499 180.8423 15.18015158360042 XW-2D 1 40907U 15049J 22083.58912376 .00004469 00000-0 21958-3 0 9996 2 40907 97.4933 87.6594 0011598 293.7188 183.6076 15.18509527360089 LILACSAT-2 1 40908U 15049K 22083.58586497 .00002325 00000-0 12718-3 0 9991 2 40908 97.5165 85.0501 0014170 315.7360 162.6165 15.15183688359632 XW-2E 1 40909U 15049L 22083.56785356 .00006477 00000-0 28904-3 0 9991 2 40909 97.4685 92.0076 0010382 272.5240 205.7612 15.21679583360495 XW-2F 1 40910U 15049M 22083.59827713 .00006558 00000-0 29692-3 0 9995 2 40910 97.4757 91.1520 0011498 273.5804 205.5283 15.21169485360270 XW-2B 1 40911U 15049N 22083.60828943 .00004442 00000-0 21892-3 0 9998 2 40911 97.4930 88.3058 0011564 296.0182 180.9766 15.18410871359972 DCBB 1 40912U 15049P 22083.56980962 .00007223 00000-0 30071-3 0 9993 2 40912 97.4415 95.4871 0011750 235.3738 244.4493 15.23988328360814 TW-1A 1 40928U 15051D 22083.56100854 .00024313 00000-0 39141-3 0 9993 2 40928 97.0509 107.3305 0007735 357.2184 154.7305 15.52924590365030 IO-86 1 40931U 15052B 22083.35670868 .00000889 00000-0 34605-4 0 9995 2 40931 5.9986 56.0904 0013187 42.5389 317.5668 14.76752740350749 ATHENOXAT-1 1 41168U 15077C 22082.96949690 .00009552 00000-0 41460-3 0 9995 2 41168 14.9877 2.8765 0009722 116.2566 326.9249 15.18456351347281 ChubuSat-2 1 41338U 16012B 22083.42336708 .00001549 00000-0 11179-3 0 9998 2 41338 31.0018 205.1510 0013550 29.2289 330.9102 15.00988628334694 ChubuSat-3 1 41339U 16012C 22083.75395090 .00001312 00000-0 93388-4 0 9995 2 41339 31.0105 200.0240 0013418 40.0314 320.1309 15.01098745334748 Horyu-4 1 41340U 16012D 22083.56528827 .00002589 00000-0 18291-3 0 9998 2 41340 31.0038 180.9948 0013619 76.3483 283.8669 15.02657048334942 e-st@r-II 1 41459U 16025D 22083.41049111 .00012681 00000-0 57794-3 0 9996 2 41459 98.1759 242.4488 0151928 197.4402 162.1592 15.11007904324642 AAUSAT4 1 41460U 16025E 22083.43152699 .00021506 00000-0 89597-3 0 9998 2 41460 98.1722 247.9682 0135179 176.2107 184.0211 15.15698075325042 LO-87 1 41557U 16033B 22083.56076721 .00008260 00000-0 26724-3 0 9994 2 41557 97.3853 181.2886 0010768 324.8386 160.3643 15.32259819324376 NuSat2 1 41558U 16033C 22083.76830216 .00007989 00000-0 24236-3 0 9997 2 41558 97.4027 186.7282 0009851 313.9062 197.1550 15.34335204324653 Lapan A3 1 41603U 16040E 22083.47991250 .00000952 00000-0 46607-4 0 9990 2 41603 97.2181 124.1699 0014958 97.5373 9.9489 15.20386127319127 Pratham 1 41783U 16059A 22083.56893167 .00000275 00000-0 61709-4 0 9995 2 41783 97.9254 128.4787 0034865 82.6547 277.8616 14.63262743293218 TY-1 1 41844U 16066D 22083.56445509 .00008318 00000-0 30603-3 0 9998 2 41844 97.3948 96.0752 0012181 222.3742 255.8832 15.28057203298631 CAS-2T 1 41847U 16066G 22083.41602466 .00000756 00000-0 12197-3 0 9998 2 41847 98.5604 148.1493 0365501 104.1718 260.0359 14.38430537282128 EO-88 1 42017U 17008BX 22083.12931007 .00011854 00000-0 39119-3 0 9993 2 42017 97.2782 150.6293 0005691 178.3349 181.7913 15.31552421284006 CAS-4B 1 42759U 17034B 22083.47335311 .00002225 00000-0 14350-3 0 9991 2 42759 43.0176 80.8487 0006854 115.0837 20.1428 15.11121787263498 CAS-4A 1 42761U 17034D 22083.44730677 .00002328 00000-0 14916-3 0 9997 2 42761 43.0174 79.8438 0007238 118.6145 12.0323 15.11211357263498 NIUSat 1 42766U 17036B 22083.32124950 .00006436 00000-0 26287-3 0 9990 2 42766 97.2142 124.2321 0012474 267.1441 92.8369 15.24649788263822 Aalto 1 1 42775U 17036L 22083.85272210 .00005649 00000-0 23385-3 0 9992 2 42775 97.2099 124.7865 0011174 264.3194 95.6770 15.24261962263888 URSA MAIOR 1 42776U 17036M 22083.53256379 .00005765 00000-0 23566-3 0 9996 2 42776 97.2113 125.1304 0010932 264.1549 95.8443 15.24680237263869 Max Valier Sat 1 42778U 17036P 22083.87699494 .00006391 00000-0 25561-3 0 9997 2 42778 97.2181 127.9242 0009515 263.1184 96.8972 15.25389043264003 Pegasus 1 42784U 17036V 22083.62908343 .00007691 00000-0 29445-3 0 9992 2 42784 97.2116 128.3780 0009008 266.5643 93.4566 15.26785756264064 NUDATSat 1 42787U 17036Y 22083.57936305 .00011472 00000-0 39562-3 0 9991 2 42787 97.2146 131.8765 0007958 252.4467 107.5915 15.30115395264103 SUCHAI 1 1 42788U 17036Z 22083.38251819 .00009160 00000-0 33680-3 0 9997 2 42788 97.2125 129.5687 0008452 261.7432 98.2849 15.28073769264188 SKCUBE 1 42789U 17036AA 22083.08238541 .00008804 00000-0 32879-3 0 9995 2 42789 97.2122 128.8278 0008431 264.1662 95.8616 15.27569219264031 VZLUSAT 1 1 42790U 17036AB 22083.12364071 .00012440 00000-0 42972-3 0 9996 2 42790 97.2150 131.4148 0007632 254.2116 105.8284 15.30044685264184 VENTA 1 1 42791U 17036AC 22083.35197229 .00007841 00000-0 29600-3 0 9993 2 42791 97.2121 129.0334 0008104 264.1537 95.8779 15.27254235264069 Robusta 1B 1 42792U 17036AD 22083.12890717 .00009517 00000-0 35096-3 0 9999 2 42792 97.2118 129.3787 0007992 263.7341 96.2989 15.27969530264084 D-SAT 1 42794U 17036AF 22083.53253886 .00002176 00000-0 18922-3 0 9999 2 42794 97.4547 93.4404 0124434 10.2810 350.0910 14.92168337258814 TechnoSat 1 42829U 17042E 22083.83401770 .00000911 00000-0 95897-4 0 9997 2 42829 97.4326 302.8657 0012688 293.2896 66.6988 14.91604316255474 QIKCOM-1 1 42983U 98067NF 22083.48208520 .00057185 00000-0 30537-3 0 9997 2 42983 51.6333 267.0631 0003068 294.0837 65.9844 15.79800637251431 AO-91 1 43017U 17073E 22083.44796460 .00002756 00000-0 21145-3 0 9994 2 43017 97.6846 341.1127 0252897 105.9432 256.9802 14.80579809234533 PICSAT 1 43132U 18004X 22083.15304955 .00009671 00000-0 34819-3 0 9994 2 43132 97.3776 160.1388 0006891 304.0562 56.0024 15.28768063233365 AO-92 1 43137U 18004AC 22083.44656431 .00007089 00000-0 26627-3 0 9999 2 43137 97.3745 159.4624 0006780 308.2826 51.7803 15.27472107233363 TianYi 2 1 43155U 18008A 22083.62177662 .00004392 00000-0 24456-3 0 9999 2 43155 97.3635 144.7813 0018240 81.0752 74.0575 15.13992994230431 Zhou Enlai 1 43156U 18008B 22083.62233038 .00004646 00000-0 26097-3 0 9995 2 43156 97.3683 144.6377 0015558 81.5924 72.4119 15.13686560230361 TianYi 6 1 43158U 18008D 22083.61540815 .00004065 00000-0 23406-3 0 9996 2 43158 97.3642 142.7711 0014519 80.3482 49.3218 15.12884903230274 S-Net D 1 43186U 18014G 22083.51369811 .00000681 00000-0 63284-4 0 9997 2 43186 97.6645 350.8753 0009559 218.0799 141.9749 14.97525292226209 S-Net B 1 43187U 18014H 22083.71420449 .00000678 00000-0 63069-4 0 9992 2 43187 97.6641 351.0273 0009614 217.2937 142.7619 14.97524382226230 S-Net A 1 43188U 18014J 22083.38035188 .00000670 00000-0 62354-4 0 9996 2 43188 97.6645 350.7584 0009575 218.5850 141.4689 14.97523030226186 S-Net C 1 43189U 18014K 22083.51458415 .00000661 00000-0 61616-4 0 9994 2 43189 97.6639 350.8215 0009600 218.0820 141.9725 14.97521310224759 FMN 1 1 43192U 18015A 22083.53642052 .00017206 00000-0 53498-3 0 9994 2 43192 97.5217 226.7347 0011762 332.5973 93.0284 15.33330526230419 Shaonian Xing 1 43199U 18015H 22083.56523464 .00011050 00000-0 36925-3 0 9996 2 43199 97.4997 222.6357 0013732 345.5629 80.6274 15.31100346230444 SurfSat 1 43614U 18070B 22083.52554465 .00026584 00000-0 49893-3 0 9996 2 43614 93.0251 62.8828 0011675 12.4745 347.6801 15.48468327197898 CP-7 DAVE 1 43615U 18070C 22083.87306760 .00027466 00000-0 52634-3 0 9995 2 43615 93.0255 62.9291 0011928 11.0496 349.1022 15.47860813197928 ELFIN-B 1 43616U 18070D 22083.94435198 .00046978 00000-0 70017-3 0 9996 2 43616 93.0179 63.7226 0010119 8.7473 351.3964 15.54883928198178 ELFIN-A 1 43617U 18070E 22083.45516681 .00043966 00000-0 63193-3 0 9991 2 43617 93.0247 64.6927 0009116 9.0720 351.0706 15.55896365198134 CubeBel-1 1 43666U 18083E 22083.54968721 .00006191 00000-0 27817-3 0 9997 2 43666 97.4306 113.2611 0011861 270.4404 242.0619 15.21443410188566 Changshagaoxin 1 43669U 18083H 22083.51340208 .00005514 00000-0 25887-3 0 9994 2 43669 97.4244 109.4605 0008256 268.6585 249.7777 15.20015102188395 Ten-Koh 1 43677U 18084G 22083.31469776 .00001194 00000-0 12705-3 0 9999 2 43677 97.9494 212.6810 0015786 187.7711 172.3264 14.90805926184990 PO-101 1 43678U 18084H 22083.61656180 .00000816 00000-0 86271-4 0 9990 2 43678 97.9551 215.9725 0009260 198.0811 162.0048 14.91979059185203 IRVINE 01 1 43693U 18088D 22083.51011433 .00025688 00000-0 83329-3 0 9990 2 43693 85.0353 8.1574 0017453 71.5555 288.7588 15.31688904187191 QO-100 1 43700U 18090A 22083.54887128 .00000135 00000-0 00000 0 0 9998 2 43700 0.0119 238.2674 0002550 159.9879 7.1338 1.00272737 12429 Reaktor Hello World 1 43743U 18096AA 22083.46801184 .00009165 00000-0 30200-3 0 9991 2 43743 97.3569 163.8280 0015739 7.8332 352.3152 15.31569535184948 MinXSS-2 1 43758U 18099A 22083.43043695 .00001571 00000-0 14209-3 0 9996 2 43758 97.6329 153.4037 0015119 185.4570 174.6489 14.96754484180386 AO-95 1 43770U 18099N 22083.45475734 .00001817 00000-0 16719-3 0 9996 2 43770 97.6294 152.0087 0014154 195.2843 164.7953 14.95913179180306 RANGE-B 1 43772U 18099Q 22083.48100355 .00002973 00000-0 26692-3 0 9990 2 43772 97.6399 153.5210 0014021 180.2164 179.9054 14.96403284180325 RANGE-A 1 43773U 18099R 22083.42445562 .00000879 00000-0 83998-4 0 9993 2 43773 97.6226 150.9857 0013309 181.9353 178.1819 14.95654621180286 MOVE-II 1 43780U 18099Y 22083.87956744 .00003620 00000-0 31999-3 0 9999 2 43780 97.6329 153.3600 0013110 187.0266 173.0774 14.96888240180406 SNUSat 2 1 43782U 18099AA 22083.44541690 .00001415 00000-0 13072-3 0 9996 2 43782 97.6293 152.4359 0012661 180.9933 179.1265 14.96112258180324 SnugLite 1 43784U 18099AC 22083.15948091 .00001261 00000-0 11647-3 0 9997 2 43784 97.6263 151.8152 0014573 189.3763 170.7189 14.96290146180308 ITASat 1 1 43786U 18099AE 22083.45826775 .00001647 00000-0 15117-3 0 9990 2 43786 97.6316 152.8805 0014985 188.1288 171.9693 14.96130243180349 EAGLET 1 1 43790U 18099AJ 22083.43246961 .00000642 00000-0 61658-4 0 9992 2 43790 97.6313 153.3693 0012893 191.2155 168.8781 14.96392511180077 ESEO 1 43792U 18099AL 22083.40617288 .00001142 00000-0 10672-3 0 9990 2 43792 97.6269 152.6734 0013030 187.4645 172.6384 14.95991285180111 CSIM 1 43793U 18099AM 22083.49002833 .00002804 00000-0 24485-3 0 9997 2 43793 97.6338 153.7782 0012803 180.6705 179.4502 14.97545589180169 Astrocast 0.1 1 43798U 18099AS 22083.45859110 .00002081 00000-0 18615-3 0 9991 2 43798 97.6316 153.7511 0012717 169.8134 190.3348 14.96880685180392 JO-97 1 43803U 18099AX 22083.43404547 .00001361 00000-0 12454-3 0 9991 2 43803 97.6282 152.5968 0014688 187.9912 172.1078 14.96508302180355 Suomi 100 1 43804U 18099AY 22083.38039983 .00001576 00000-0 14372-3 0 9993 2 43804 97.6274 152.4818 0014924 188.5533 171.5437 14.96441452180353 Al Farabi 2 1 43805U 18099AZ 22083.59569668 .00002134 00000-0 19081-3 0 9998 2 43805 97.6294 153.0912 0014929 186.4278 173.6762 14.96838515180406 CHOMPTT 1 43855U 18104G 22083.56641033 .00005432 00000-0 20976-3 0 9993 2 43855 85.0325 107.6812 0016104 182.6884 177.4277 15.25892555181770 ISAT 1 43879U 18111D 22083.48092773 .00002686 00000-0 23598-3 0 9990 2 43879 97.6705 350.6387 0011202 240.7135 119.2968 14.97364843176950 UWE-4 1 43880U 18111E 22083.42744865 .00002673 00000-0 23374-3 0 9990 2 43880 97.6745 351.2329 0010161 241.9466 118.0729 14.97567577176975 Sparrow 1 43881U 18111F 22083.25137076 .00001516 00000-0 13437-3 0 9996 2 43881 97.6750 351.2585 0010732 242.8036 117.2092 14.97662970176958 Lume 1 1 43908U 18111AJ 22083.39387496 .00007536 00000-0 27283-3 0 9996 2 43908 97.2028 333.9301 0020027 22.7150 337.4972 15.28488582180391 FO-98 1 43933U 19003B 22083.85060857 .00187692 00000-0 30373-2 0 9990 2 43933 97.1459 122.0992 0010682 116.1413 244.0940 15.52093163177090 FO-99 1 43937U 19003F 22083.05761430 .00009318 00000-0 33706-3 0 9993 2 43937 97.1424 119.8172 0023576 99.1649 261.2260 15.28366524176921 MYSat 1 1 44045U 18092F 22083.54346316 .00025972 00000-0 50701-3 0 9995 2 44045 51.6338 134.0394 0007442 134.3160 225.8439 15.47280840174693 AstroCast 0.2 1 44083U 19018F 22083.83377622 .00008602 00000-0 34593-3 0 9994 2 44083 97.3329 144.3835 0013470 71.3677 288.9022 15.25066132165585 AISTechSat 3 1 44103U 19018AB 22083.81091408 .00006873 00000-0 26946-3 0 9991 2 44103 97.3193 144.7841 0014046 77.9183 282.3629 15.25983654165737 AISat 1 1 44104U 19018AC 22083.80046846 .00006618 00000-0 19407-3 0 9998 2 44104 97.3978 166.6938 0055385 76.8065 283.9349 15.33976253166617 Prox-1 1 44339U 19036A 22083.47412146 .00003088 00000-0 66348-3 0 9995 2 44339 24.0017 9.7007 0010229 6.3019 353.7600 14.54407406145969 Oculus-ASR 1 44348U 19036K 22083.30004471 .00043418 00000-0 48578-3 0 9991 2 44348 28.5072 55.5714 0274417 82.5731 280.5957 15.27119503151475 Armadillo 1 44352U 19036P 22083.08562869 .00085698 -45475-5 70307-3 0 9993 2 44352 28.5266 3.0111 0203940 165.5767 195.0763 15.46376279151930 NO-104 1 44354U 19036R 22083.25669904 .00046698 -52290-5 48859-3 0 9999 2 44354 28.5245 44.2182 0266470 98.1017 264.9896 15.29478384151585 NO-103 1 44355U 19036S 22083.24831198 .00245897 11359-4 91941-3 0 9996 2 44355 28.5203 285.2225 0109819 293.7166 65.1955 15.77520417152762 Move-IIb 1 44398U 19038N 22083.55970863 .00008736 00000-0 45147-3 0 9995 2 44398 97.6205 52.3238 0024852 64.7554 295.6250 15.16255058150164 SONATE 1 44400U 19038Q 22083.60533947 .00003509 00000-0 19737-3 0 9992 2 44400 97.6297 51.8384 0026063 66.9992 293.3977 15.13651300150091 BeeSat 9 1 44412U 19038AC 22083.37581728 .00007092 00000-0 37899-3 0 9999 2 44412 97.6278 52.1890 0023149 70.8931 289.4804 15.15179604149804 JAISAT-1 1 44419U 19038F 22083.45432396 .00007417 00000-0 39107-3 0 9996 2 44419 97.6283 53.0380 0022006 68.5108 291.8467 15.15661488150172 LightSail-2 1 44420U 19036AC 22083.82761303 .00038758 00000-0 65065-2 0 9993 2 44420 24.0032 322.6343 0007382 89.8626 270.2714 14.68304247144707 Taurus 1 1 44530U 19059C 22083.49912795 .00001367 00000-0 39073-3 0 9993 2 44530 98.5432 181.2449 0013378 23.5366 336.6431 14.46640489133565 Duchifat 3 1 44854U 19089C 22083.47653884 .00002518 00000-0 20291-3 0 9995 2 44854 36.9654 243.8569 0008445 260.0983 99.8808 15.00349573125160 OPS-SAT 1 44878U 19092F 22083.75853673 .00006347 00000-0 31138-3 0 9990 2 44878 97.4799 268.5329 0011870 275.7286 84.2595 15.18394964125334 TO-108 1 44881U 19093C 22083.48750515 .00000356 00000-0 51897-4 0 9995 2 44881 97.8970 163.9090 0016508 101.5910 258.7160 14.81603203122194 FloripaSat 1 1 44885U 19093G 22083.73245371 .00001212 00000-0 15629-3 0 9990 2 44885 97.9000 165.2257 0016013 107.6779 252.6194 14.82753382122290 RS-44 1 44909U 19096E 22083.52000562 .00000005 00000-0 -27228-4 0 9997 2 44909 82.5170 286.7138 0217761 158.0782 202.9814 12.79712384104646 Phoenix 1 45258U 98067RB 22083.08825766 .00084190 00000-0 59850-3 0 9993 2 45258 51.6351 358.4528 0005228 188.5023 171.5888 15.73137261118910 BY70-2 1 45857U 20042B 22083.46205390 .00003878 00000-0 53784-3 0 9997 2 45857 97.9594 161.1894 0010945 39.9937 320.2085 14.78481388 92893 UPMSat 2 1 46276U 20061E 22083.52596368 .00002899 00000-0 14839-3 0 9999 2 46276 97.3988 156.3043 0003000 101.9746 258.1824 15.17397872 85995 AmicalSat 1 46287U 20061R 22083.44987357 .00003448 00000-0 20645-3 0 9997 2 46287 97.4539 155.2509 0002514 175.7950 184.3302 15.11655913 85628 SALSAT 1 46495U 20068K 22083.41871863 .00001316 00000-0 99463-4 0 9993 2 46495 97.7230 24.7646 0015878 198.8761 161.1878 15.04031549 81403 BY70-3 1 46839U 20079N 22083.46036214 .00013530 00000-0 36372-3 0 9995 2 46839 97.2065 156.8805 0004831 279.3733 211.1324 15.38002224 77166 SPOC 1 46921U 98067RR 22083.31548910 .00075827 00000-0 62213-3 0 9994 2 46921 51.6375 9.8476 0003474 119.8660 240.2682 15.69779212 78530 Bobcat-1 1 46922U 98067RS 22083.88927296 .00368331 62897-4 10732-2 0 9994 2 46922 51.6329 353.3782 0006110 175.1970 184.9096 15.92294016 78753 Neutron-1 1 46923U 98067RT 22083.16220873 .00076140 00000-0 62918-3 0 9995 2 46923 51.6381 11.0832 0003721 120.5649 239.5715 15.69603788 78533 CAPE 3 1 47309U 21002A 22083.38222179 .00005717 00000-0 25211-3 0 9991 2 47309 60.6858 324.1286 0018080 220.1540 139.8212 15.22936865 65481 AO-109 1 47311U 21002C 22083.20723512 .00005802 00000-0 25067-3 0 9996 2 47311 60.6865 322.7629 0015029 209.4292 150.5951 15.23650163 65464 MiTEE 1 1 47314U 21002F 22083.15845160 .00010490 00000-0 40321-3 0 9996 2 47314 60.6846 318.4188 0017169 193.7058 166.3567 15.26837805 65551 ExoCube 2 1 47319U 21002L 22083.37924516 .00005210 00000-0 22887-3 0 9999 2 47319 60.6862 322.9860 0015494 214.9940 145.0131 15.23254841 65445 UVSQ-SAT 1 47438U 21006AB 22083.61282568 .00003955 00000-0 21807-3 0 9991 2 47438 97.4479 144.3924 0011854 202.4310 157.6405 15.14493107 64436 YUSAT 1 1 47439U 21006AC 22083.46933772 .00004872 00000-0 26619-3 0 9990 2 47439 97.4483 144.2975 0011682 203.2379 156.8326 15.14709771 64418 SOMP 2b 1 47445U 21006AJ 22083.72795169 .00004271 00000-0 23679-3 0 9998 2 47445 97.4449 144.2370 0011411 206.2683 153.7971 15.14263514 64442 IDEASSat 1 47458U 21006AX 22083.43634728 .00004178 00000-0 23280-3 0 9997 2 47458 97.4540 144.3690 0010562 204.7022 155.3705 15.14103086 64394 RSP-01 1 47925U 98067SB 22083.21294710 .00091440 00000-0 79012-3 0 9998 2 47925 51.6391 19.6741 0003005 111.9820 248.1496 15.68444759 58361 TAUSAT-1 1 47926U 98067SC 22083.09209515 .00188772 00000-0 11379-2 0 9990 2 47926 51.6345 15.0677 0003446 133.3506 226.7781 15.76566720 58403 Tsuru 1 47927U 98067SD 22083.54490732 .00071439 00000-0 68162-3 0 9998 2 47927 51.6384 19.6354 0002646 104.8889 255.2400 15.66101490 58398 STARS-EC 1 47928U 98067SE 22083.50617263 .00258335 00000-0 12186-2 0 9991 2 47928 51.6342 12.5638 0006800 134.7832 225.3724 15.81765914 58465 Maya-2 1 47929U 98067SF 22083.28665895 .00072542 00000-0 69477-3 0 9991 2 47929 51.6386 20.9094 0002527 104.3428 255.7849 15.66001103 58314 OPUSAT-II 1 47930U 98067SG 22083.16985581 .00284665 00000-0 12477-2 0 9995 2 47930 51.6315 12.5632 0004914 148.9718 211.1576 15.83279813 58453 GuaraniSat-1 1 47931U 98067SH 22083.08628871 .00072887 00000-0 69507-3 0 9991 2 47931 51.6396 21.8364 0002499 101.3281 258.7996 15.66106771 58324 CubeSX-Sirius-HSE 1 47951U 21022V 22083.56403439 .00002502 00000-0 17195-3 0 9997 2 47951 97.5392 344.8763 0023661 76.6846 283.7020 15.06624459 55210 CubeSX-HSE 1 47952U 21022W 22083.62078563 .00002196 00000-0 15129-3 0 9995 2 47952 97.5379 344.9466 0023518 76.0695 284.3151 15.06670775 55229 KSU-Cubesat 1 47954U 21022Y 22083.46347868 .00003810 00000-0 25823-3 0 9992 2 47954 97.5391 344.8615 0022768 76.7490 283.6275 15.06838170 54926 GRBAlpha 1 47959U 21022AD 22083.75282510 .00002200 00000-0 15151-3 0 9996 2 47959 97.5385 345.1036 0023330 76.0770 284.3076 15.06686649 54069 Orbicraft-Zorkiy 1 47960U 21022AE 22083.46884906 .00002955 00000-0 20153-3 0 9998 2 47960 97.5400 344.9246 0022679 76.4018 283.9758 15.06789472 54715 STECCO 1 47962U 21022AG 22083.79759042 .00004854 00000-0 31568-3 0 9990 2 47962 97.5380 345.7285 0018016 72.1619 358.1324 15.08315775 54106 DO-111 1 47963U 21022AH 22083.70518544 .00010914 00000-0 66388-3 0 9994 2 47963 97.5392 346.2009 0020294 67.2156 293.1215 15.10438633 54145 MO-110 1 47964U 21022AJ 22083.71630306 .00005182 00000-0 33335-3 0 9994 2 47964 97.5382 345.8426 0020978 68.8046 291.5421 15.08642215 54104 FEES 1 48082U 21022AL 22083.53094331 .00007545 00000-0 48376-3 0 9994 2 48082 97.5391 345.5269 0017072 66.7454 293.5570 15.08674028 53775 RamSat 1 48850U 98067SL 22083.33409023 .00042615 00000-0 53475-3 0 9999 2 48850 51.6407 28.7061 0005567 104.8028 255.3582 15.59274839 44001 MO-112 1 48868U 98067SP 22083.81938183 .00275273 00000-0 14419-2 0 9997 2 48868 51.6318 16.8877 0006971 142.2889 217.8602 15.79435155 42988 TUBIN 1 48900U 21059X 22083.48133723 .00003147 00000-0 18123-3 0 9997 2 48900 97.5392 213.5845 0011020 43.8651 20.9000 15.13105662 41069 IT-SPINS 1 49017U 21013G 22083.43329851 .00006428 00000-0 26934-3 0 9995 2 49017 51.5940 86.0518 0009480 123.1319 237.0569 15.24716026 40804 LEDSAT 1 49069U 21073D 22083.46655285 .00002836 00000-0 18759-3 0 9999 2 49069 97.5311 158.0607 0026684 222.9754 136.9390 15.07882787 33022 CUTE 1 49263U 21088D 22083.42886164 .00001622 00000-0 12694-3 0 9993 2 49263 97.5950 153.0688 0020435 357.6666 2.4460 15.02276171 26652 Binar-1 1 49272U 98067SR 22083.30604720 .00045002 00000-0 59335-3 0 9990 2 49272 51.6403 32.2499 0004030 34.0389 326.0861 15.57943550 26343 Maya-3 1 49273U 98067SS 22083.86531043 .00066560 00000-0 79989-3 0 9998 2 49273 51.6397 28.4884 0003612 46.6167 313.5127 15.60229186 26442 Maya-4 1 49274U 98067ST 22083.36048838 .00060794 00000-0 73723-3 0 9992 2 49274 51.6395 31.1149 0003516 44.7277 315.3999 15.60030730 26363 CUAVA-1 1 49275U 98067SU 22083.59910476 .00052458 00000-0 65619-3 0 9997 2 49275 51.6423 30.0896 0004480 50.5302 121.9518 15.59272430 26347 TeikyoSat 4 1 49396U 21102B 22083.53468703 .00000062 00000-0 95301-5 0 9999 2 49396 97.5492 144.2295 0019847 180.4547 179.6662 15.00455079 20313 Z-Sat 1 49399U 21102E 22083.51365977 .00001950 00000-0 15170-3 0 9990 2 49399 97.5481 144.5942 0023388 158.8156 201.4043 15.02207885 20337 KOSEN 1 1 49402U 21102H 22083.43243504 .00001615 00000-0 12325-3 0 9994 2 49402 97.5422 144.5909 0023762 146.4317 213.8420 15.03158658 20338 HO-113 1 50466U 21131B 22083.52010247 .00000059 00000-0 33852-4 0 9994 2 50466 98.5852 160.8027 0005223 55.5334 304.6346 14.38452261 12703 Tevel 1 50999U 22002R 22083.45275792 .00005214 00000-0 29477-3 0 9998 2 50999 97.4889 151.9445 0011133 0.5942 359.5300 15.13464791 10565 Grizu-263a 1 51025U 22002AT 22083.43096687 .00008156 00000-0 44921-3 0 9990 2 51025 97.5058 152.1345 0013017 4.0021 356.1312 15.14207614 10563 NO-116 1 51031U 22002AZ 22083.16965797 .00005848 00000-0 32535-3 0 9997 2 51031 97.5013 151.8297 0013317 5.0595 355.0768 15.13969309 10527 IRIS-A 1 51044U 22002BN 22083.42033322 .00002902 00000-0 16985-3 0 9999 2 51044 97.4908 151.8522 0009355 7.8038 352.3336 15.12584582 10552 DELFI-PQ 1 51074U 22002CU 22083.83682312 .00008134 00000-0 43359-3 0 9994 2 51074 97.5141 152.7421 0014738 33.2897 326.9259 15.15352043 10638 SO-115 1 51080U 22002DA 22083.44685199 .00005366 00000-0 28979-3 0 9999 2 51080 97.5159 152.3535 0014512 34.7110 325.5066 15.15051335 10574 SO-114 1 51081U 22002DB 22082.98511277 .00005525 00000-0 29831-3 0 9998 2 51081 97.5146 151.8880 0014873 36.0492 324.1740 15.15042516 10504 GASPACS 1 51439U 98067TB 22083.41876135 .00116381 00000-0 14380-2 0 9990 2 51439 51.6401 34.4948 0003301 210.2721 149.8081 15.59251106 8885 /EX